KB3AWQ Weather Reports


time (UTC)temp
F
wind
direction
speed
knots
gust
knots
rain 1hr
in
rain 24hr
in
rain mn
in
humidity
%
barometer
mb
20260504050427 41 0 0.0 0.0 0.00 0.00 0.00 83 1012.7
20260504045929 41 0 0.0 0.0 0.00 0.00 0.00 83 1012.8
20260504045426 41 0 0.0 0.0 0.00 0.00 0.00 83 1012.9
20260504044926 41 0 0.0 0.0 0.00 0.00 0.00 83 1012.9
20260504044426 41 0 0.0 0.0 0.00 0.00 0.00 82 1012.9
20260504043926 41 205 0.0 0.9 0.00 0.00 0.00 82 1012.9
20260504043426 42 0 0.0 0.0 0.00 0.00 0.00 82 1012.8
20260504042926 42 0 0.0 0.0 0.00 0.00 0.00 81 1012.8
20260504042427 42 315 0.0 0.9 0.00 0.00 0.00 81 1012.8
20260504041926 42 331 0.0 0.9 0.00 0.00 0.00 80 1012.7
20260504041426 42 0 0.0 0.0 0.00 0.00 0.00 80 1012.7
20260504040926 42 0 0.0 0.0 0.00 0.00 0.00 80 1012.7
20260504040426 43 0 0.0 0.0 0.00 0.00 0.00 80 1012.7
20260504035926 43 323 0.0 0.0 0.00 0.00 0.00 79 1012.6
20260504035426 43 0 0.0 0.0 0.00 0.00 0.00 79 1012.6
20260504034926 43 0 0.0 0.0 0.00 0.00 0.00 79 1012.6
20260504034427 43 0 0.0 0.0 0.00 0.00 0.00 79 1012.6
20260504033926 44 0 0.0 0.0 0.00 0.00 0.00 79 1012.6
20260504033426 44 326 0.0 0.9 0.00 0.00 0.00 78 1012.5
20260504032926 44 0 0.0 0.0 0.00 0.00 0.00 77 1012.6
20260504032427 44 0 0.0 0.0 0.00 0.00 0.00 78 1012.7
20260504031926 44 0 0.0 0.0 0.00 0.00 0.00 76 1012.6
20260504031426 45 0 0.0 0.0 0.00 0.00 0.00 75 1012.6
20260504030926 45 0 0.0 0.0 0.00 0.00 0.00 76 1012.6
20260504030428 46 312 0.0 0.9 0.00 0.00 0.00 75 1012.6
20260504025927 46 0 0.0 0.0 0.00 0.00 0.00 72 1012.6
20260504025426 46 0 0.0 0.0 0.00 0.00 0.00 72 1012.6
20260504024926 46 0 0.0 0.0 0.00 0.00 0.00 71 1012.7
20260504024426 47 0 0.0 0.0 0.00 0.00 0.00 72 1012.6
20260504023926 47 0 0.0 0.0 0.00 0.00 0.00 70 1012.7
20260504023426 47 0 0.0 0.0 0.00 0.00 0.00 68 1012.7
20260504022926 47 0 0.0 0.0 0.00 0.00 0.00 68 1012.6
20260504022426 48 0 0.0 0.0 0.00 0.00 0.00 67 1012.6
20260504021926 48 0 0.0 0.0 0.00 0.00 0.00 67 1012.6
20260504021426 48 0 0.0 0.0 0.00 0.00 0.00 67 1012.6
20260504020927 48 0 0.0 0.0 0.00 0.00 0.00 65 1012.5
20260504020427 49 0 0.0 0.0 0.00 0.00 0.00 65 1012.6
20260504015926 49 0 0.0 0.0 0.00 0.00 0.00 65 1012.5
20260504015427 50 0 0.0 0.0 0.00 0.00 0.00 65 1012.4
20260504014927 50 0 0.0 0.0 0.00 0.00 0.00 60 1012.5
20260504014427 51 0 0.0 0.0 0.00 0.00 0.00 59 1012.5
20260504013927 51 0 0.0 0.0 0.00 0.00 0.00 58 1012.5
20260504013426 51 0 0.0 0.0 0.00 0.00 0.00 58 1012.5
20260504012926 51 0 0.0 0.0 0.00 0.00 0.00 55 1012.5
20260504012427 52 0 0.0 0.0 0.00 0.00 0.00 55 1012.4
20260504011927 52 0 0.0 0.0 0.00 0.00 0.00 55 1012.3
20260504011427 52 0 0.0 0.0 0.00 0.00 0.00 56 1012.3
20260504010932 52 0 0.0 0.0 0.00 0.00 0.00 55 1012.3
20260504010427 53 0 0.0 0.0 0.00 0.00 0.00 55 1012.2
20260504005926 53 0 0.0 0.0 0.00 0.00 0.00 54 1012.2
20260504005427 53 0 0.0 0.0 0.00 0.00 0.00 53 1012.2
20260504004926 54 0 0.0 0.0 0.00 0.00 0.00 51 1012.1
20260504004427 54 0 0.0 0.0 0.00 0.00 0.00 51 1012.1
20260504003926 55 0 0.0 0.0 0.00 0.00 0.00 50 1012.0
20260504003427 55 263 0.0 1.7 0.00 0.00 0.00 49 1012.0
20260504002926 55 0 0.0 0.0 0.00 0.00 0.00 49 1012.0
20260504002427 56 252 0.0 0.9 0.00 0.00 0.00 47 1011.9
20260504001926 56 0 0.0 0.0 0.00 0.00 0.00 47 1011.9
20260504001426 56 237 0.0 1.7 0.00 0.00 0.00 45 1011.9
20260504000927 57 235 0.0 0.0 0.00 0.00 0.00 45 1011.9
20260504000426 57 230 0.0 0.0 0.00 0.00 0.00 46 1011.9
20260503235928 57 199 0.0 1.7 0.00 0.00 0.00 44 1011.8
20260503235426 57 225 0.9 1.7 0.00 0.00 0.00 43 1011.8
20260503234926 58 190 0.0 0.9 0.00 0.00 0.00 44 1011.8
20260503234426 58 197 0.0 0.9 0.00 0.00 0.00 43 1011.8
20260503233927 58 157 0.0 1.7 0.00 0.00 0.00 43 1011.7
20260503233426 58 198 0.9 1.7 0.00 0.00 0.00 42 1011.7
20260503232926 59 199 0.0 1.7 0.00 0.00 0.00 42 1011.7
20260503232426 59 223 1.7 2.6 0.00 0.00 0.00 42 1011.7
20260503231926 59 195 0.9 1.7 0.00 0.00 0.00 42 1011.6
20260503231426 59 164 0.0 0.9 0.00 0.00 0.00 42 1011.7
20260503230926 60 201 0.0 0.9 0.00 0.00 0.00 41 1011.6
20260503230426 60 174 0.9 1.7 0.00 0.00 0.00 41 1011.7
20260503225926 60 160 0.9 1.7 0.00 0.00 0.00 41 1011.6
20260503225428 60 143 0.9 2.6 0.00 0.00 0.00 42 1011.7
20260503224926 60 214 0.9 2.6 0.00 0.00 0.00 39 1011.7
20260503224426 60 191 0.0 1.7 0.00 0.00 0.00 41 1011.7
20260503223926 60 205 0.0 1.7 0.00 0.00 0.00 41 1011.6
20260503223426 60 159 0.9 1.7 0.00 0.00 0.00 40 1011.7
20260503222926 60 205 0.9 2.6 0.00 0.00 0.00 39 1011.7
20260503222427 60 216 0.9 2.6 0.00 0.00 0.00 39 1011.7
20260503221927 60 193 0.9 1.7 0.00 0.00 0.00 40 1011.7
20260503221427 60 194 0.9 2.6 0.00 0.00 0.00 39 1011.6
20260503220927 60 209 0.9 1.7 0.00 0.00 0.00 40 1011.7
20260503220427 61 207 0.9 2.6 0.00 0.00 0.00 39 1011.7
20260503215926 61 230 0.9 1.7 0.00 0.00 0.00 39 1011.7
20260503215426 60 224 2.6 4.3 0.00 0.00 0.00 38 1011.7
20260503214926 60 202 0.9 1.7 0.00 0.00 0.00 39 1011.7
20260503214426 61 205 0.9 2.6 0.00 0.00 0.00 39 1011.7
20260503213926 61 218 1.7 2.6 0.00 0.00 0.00 38 1011.6
20260503213432 61 238 2.6 4.3 0.00 0.00 0.00 38 1011.6
20260503212926 61 215 1.7 3.5 0.00 0.00 0.00 39 1011.5
20260503212427 61 231 0.9 1.7 0.00 0.00 0.00 39 1011.5
20260503211926 61 197 1.7 5.2 0.00 0.00 0.00 38 1011.5
20260503211426 61 237 1.7 3.5 0.00 0.00 0.00 39 1011.4
20260503210928 61 204 0.9 2.6 0.00 0.00 0.00 39 1011.5
20260503210427 60 231 0.9 2.6 0.00 0.00 0.00 39 1011.5
20260503205926 60 188 0.9 1.7 0.00 0.00 0.00 39 1011.5
20260503205426 60 224 1.7 3.5 0.00 0.00 0.00 38 1011.5
20260503204926 61 206 0.9 1.7 0.00 0.00 0.00 40 1011.5
20260503204427 61 193 1.7 4.3 0.00 0.00 0.00 39 1011.6
20260503203926 62 212 1.7 3.5 0.00 0.00 0.00 38 1011.5
20260503203426 62 245 1.7 3.5 0.00 0.00 0.00 38 1011.5
20260503202926 62 254 0.9 1.7 0.00 0.00 0.00 38 1011.6
20260503202426 62 246 0.0 1.7 0.00 0.00 0.00 39 1011.6
20260503201927 62 235 0.9 2.6 0.00 0.00 0.00 39 1011.6
20260503201427 62 251 0.9 2.6 0.00 0.00 0.00 38 1011.7
20260503200927 62 223 2.6 5.2 0.00 0.00 0.00 39 1011.8
20260503200427 62 230 1.7 7.0 0.00 0.00 0.00 39 1011.9
20260503195926 62 234 0.0 1.7 0.00 0.00 0.00 40 1012.0
20260503195426 61 229 0.9 2.6 0.00 0.00 0.00 40 1012.0
20260503194926 61 248 1.7 4.3 0.00 0.00 0.00 37 1011.9
20260503194427 61 240 1.7 3.5 0.00 0.00 0.00 39 1012.0
20260503193926 61 204 0.9 1.7 0.00 0.00 0.00 41 1012.1
20260503193426 62 228 1.7 3.5 0.00 0.00 0.00 39 1012.1
20260503192926 62 212 1.7 3.5 0.00 0.00 0.00 38 1012.2
20260503192426 62 239 0.9 2.6 0.00 0.00 0.00 38 1012.2
20260503191926 62 239 2.6 5.2 0.00 0.00 0.00 37 1012.3
20260503191426 62 218 0.9 2.6 0.00 0.00 0.00 40 1012.3
20260503190926 62 254 0.9 1.7 0.00 0.00 0.00 39 1012.4
20260503190426 62 229 1.7 3.5 0.00 0.00 0.00 39 1012.5
20260503185926 62 221 1.7 3.5 0.00 0.00 0.00 38 1012.5
20260503185427 61 197 0.9 3.5 0.00 0.00 0.00 40 1012.5
20260503184927 60 239 0.9 1.7 0.00 0.00 0.00 41 1012.6
20260503184426 60 224 1.7 4.3 0.00 0.00 0.00 40 1012.6
20260503183928 60 216 0.9 1.7 0.00 0.00 0.00 40 1012.7
20260503183426 60 245 0.9 3.5 0.00 0.00 0.00 41 1012.6
20260503182926 60 197 0.9 2.6 0.00 0.00 0.00 39 1012.7
20260503182426 60 266 1.7 5.2 0.00 0.00 0.00 41 1012.7
20260503181926 60 239 1.7 3.5 0.00 0.00 0.00 39 1012.7
20260503181426 60 252 1.7 3.5 0.00 0.00 0.00 41 1012.7
20260503180927 60 231 0.9 1.7 0.00 0.00 0.00 40 1012.6
20260503180427 60 235 0.9 3.5 0.00 0.00 0.00 39 1012.6
20260503175926 60 234 1.7 5.2 0.00 0.00 0.00 39 1012.8
20260503175426 60 230 0.9 2.6 0.00 0.00 0.00 39 1012.7
20260503174926 60 207 0.9 3.5 0.00 0.00 0.00 40 1012.9
20260503174426 59 267 1.7 5.2 0.00 0.00 0.00 41 1012.9
20260503173926 59 219 1.7 3.5 0.00 0.00 0.00 38 1012.9
20260503173428 58 211 0.9 3.5 0.00 0.00 0.00 41 1013.0
20260503172926 58 178 0.9 3.5 0.00 0.00 0.00 42 1013.1
20260503172428 57 173 0.9 1.7 0.00 0.00 0.00 42 1013.2
20260503171926 57 156 0.0 1.7 0.00 0.00 0.00 45 1013.3
20260503171426 57 203 0.9 1.7 0.00 0.00 0.00 43 1013.4
20260503170926 58 187 1.7 2.6 0.00 0.00 0.00 41 1013.3
20260503170426 59 241 0.9 2.6 0.00 0.00 0.00 39 1013.7
20260503150926 51 290 0.9 1.7 0.00 0.00 0.00 50 1014.8
20260503150426 52 201 1.7 2.6 0.00 0.00 0.00 48 1014.8
20260503130927 49 212 0.9 1.7 0.00 0.00 0.00 53 1015.4
20260503130427 49 210 0.9 2.6 0.00 0.00 0.00 52 1015.4
20260503110427 40 214 0.0 0.9 0.00 0.00 0.00 78 1015.0
20260503090426 38 0 0.0 0.0 0.00 0.00 0.00 80 1014.2
20260503081426 38 0 0.0 0.0 0.00 0.00 0.00 84 1013.9
20260503080927 38 0 0.0 0.0 0.00 0.00 0.00 84 1013.9
20260503080426 38 0 0.0 0.0 0.00 0.00 0.00 83 1013.9
20260503072926 40 0 0.0 0.0 0.00 0.00 0.00 80 1013.7
20260503072426 40 0 0.0 0.0 0.00 0.00 0.00 80 1013.7
20260503071926 40 0 0.0 0.0 0.00 0.00 0.00 79 1013.7
20260503071427 40 0 0.0 0.0 0.00 0.00 0.00 79 1013.7
20260503070926 41 0 0.0 0.0 0.00 0.00 0.00 78 1013.7
20260503070427 41 0 0.0 0.0 0.00 0.00 0.00 78 1013.7
20260503054926 43 0 0.0 0.0 0.00 0.00 0.00 72 1013.9
20260503054426 43 292 0.0 0.9 0.00 0.00 0.00 72 1013.9
20260503053926 43 231 0.0 0.9 0.00 0.00 0.00 72 1013.9
20260503053426 43 0 0.0 0.0 0.00 0.00 0.00 71 1014.0